143P/Kowal-Mrkos (2018)

Japanese version
Home page
Updated on July 18, 2021

---------------------------------------------------------------------

* Profile

* Pictures

* Orbital Elements

Epoch 2018 May 2.0 TT = JDT 2458240.5
T 2018 May 7.30237 TT                                   Rudenko
q   2.5322556            (2000.0)            P               Q
n   0.11065434     Peri.  320.86788     -0.89555496     +0.43869012
a   4.2969181      Node   245.30339     -0.38492073     -0.84768382
e   0.4106810      Incl.    4.69592     -0.22319798     -0.29830037
P   8.91
From 1060 observations 1984 Apr. 23-2021 June 22, mean residual 0".5.

* Finding Charts

* Magnitudes Graph

        H = 13.6  G = 0.15

---------------------------------------------------------------------

The orbital elements are published on M.P.E.C. 2021-N06.
The charts are made with StellaNavigator Ver.8 (AstroArts).
The magnitudes graphs are made with Comet for Windows.

---------------------------------------------------------------------

Copyright(C) Seiichi Yoshida (comet@aerith.net). All rights reserved.